STARLINK-36904

Last updated on Fri Mar 27 2026 00:02:06 GMT+0000 (Coordinated Universal Time)

1 67977U 26038S 26085.50002314 -.02236002 00000+0 -58470-1 0 9992 2 67977 97.2851 96.4042 0001514 85.4886 52.3881 15.42041838 5902

Satellite not in orbit